Location: Dana
(41.8364°N, 106.7042°W)
Time: 12:09:23
(UTC+00:00)

Tiros 1 despin weight - Pass Details

Date: 11 May 2026
Orbit: 554 x 591 km, 48.2° (Epoch: 10 June)

Event Time Altitude Azimuth Distance (km) Brightness Sun altitude
Rises 11:54:21 0° 186° (S) 2,742 ? -0.2°
Reaches altitude 10° 11:57:58 10° 154° (SSE) 1,842 ? 0.4°
Maximum altitude 11:59:30 12° 132° (SE) 1,727 ? 0.6°
Drops below altitude 10° 12:01:02 10° 110° (ESE) 1,840 ? 0.9°
Sets 12:04:38 0° 79° (ENE) 2,733 ? 1.5°
